Total_Precipitation_Accumulation
0.37 0.55 0.45 0.25 0.20 0.17 0.12 0.09 0.08 0.11 0.12 0.17 0.23 0.15 0.13 0.08 0.05 0.03 0.03 0.03 0.01 0.01 0.01 0.01 0.00 0.01 0.01 0.01 0.02 0.02 0.01 0.00 0.00 0.00 0.00 0.00 0.00 0.00 0.00 0.00 0.00 0.00 0.00
0.22 0.43 0.43 0.33 0.17 0.17 0.17 0.11 0.09 0.10 0.12 0.12 0.23 0.19 0.14 0.12 0.10 0.04 0.03 0.02 0.02 0.02 0.02 0.04 0.02 0.03 0.01 0.01 0.03 0.05 0.05 0.07 0.04 0.00 0.00 0.00 0.00 0.00 0.00 0.00 0.00 0.00 0.00
0.32 0.50 0.36 0.46 0.32 0.16 0.12 0.11 0.08 0.07 0.07 0.12 0.16 0.13 0.14 0.15 0.10 0.07 0.07 0.06 0.02 0.02 0.03 0.04 0.04 0.06 0.04 0.03 0.02 0.03 0.03 0.04 0.06 0.03 0.01 0.01 0.02 0.01 0.00 0.00 0.00 0.00 0.00
0.13 0.61 0.51 0.43 0.35 0.19 0.11 0.10 0.10 0.07 0.05 0.10 0.13 0.10 0.07 0.15 0.10 0.10 0.10 0.07 0.05 0.03 0.04 0.03 0.03 0.02 0.01 0.03 0.04 0.04 0.06 0.08 0.09 0.09 0.06 0.03 0.02 0.01 0.01 0.00 0.00 0.00 0.00
0.05 0.24 0.40 0.40 0.37 0.20 0.15 0.09 0.10 0.11 0.06 0.06 0.14 0.13 0.08 0.15 0.09 0.06 0.06 0.07 0.07 0.05 0.04 0.04 0.03 0.02 0.02 0.03 0.05 0.03 0.04 0.04 0.04 0.04 0.03 0.02 0.01 0.00 0.00 0.01 0.02 0.01 0.00
0.02 0.09 0.16 0.28 0.37 0.28 0.14 0.10 0.08 0.11 0.10 0.09 0.08 0.08 0.09 0.05 0.04 0.12 0.15 0.12 0.08 0.06 0.04 0.04 0.04 0.04 0.04 0.04 0.05 0.05 0.06 0.06 0.03 0.02 0.01 0.02 0.00 0.00 0.01 0.02 0.03 0.03 0.02
0.03 0.07 0.13 0.21 0.31 0.30 0.19 0.13 0.08 0.07 0.10 0.11 0.11 0.14 0.08 0.04 0.07 0.06 0.15 0.20 0.14 0.10 0.07 0.07 0.05 0.05 0.06 0.05 0.04 0.05 0.06 0.07 0.05 0.04 0.04 0.03 0.02 0.02 0.04 0.09 0.08 0.06 0.03
0.09 0.08 0.13 0.28 0.36 0.34 0.27 0.16 0.13 0.13 0.09 0.08 0.09 0.12 0.18 0.11 0.09 0.11 0.20 0.32 0.24 0.19 0.16 0.16 0.12 0.10 0.11 0.11 0.12 0.10 0.07 0.05 0.05 0.05 0.04 0.02 0.01 0.02 0.04 0.05 0.04 0.06 0.05
0.17 0.17 0.13 0.31 0.44 0.52 0.42 0.22 0.16 0.16 0.17 0.16 0.12 0.12 0.14 0.13 0.18 0.26 0.42 0.32 0.19 0.16 0.16 0.16 0.14 0.12 0.13 0.16 0.17 0.18 0.17 0.16 0.15 0.12 0.06 0.04 0.03 0.03 0.05 0.07 0.10 0.10 0.09
0.39 0.27 0.19 0.24 0.44 0.53 0.63 0.46 0.34 0.22 0.15 0.17 0.24 0.27 0.32 0.26 0.30 0.24 0.31 0.28 0.16 0.13 0.13 0.12 0.17 0.12 0.11 0.13 0.21 0.31 0.34 0.27 0.22 0.19 0.11 0.05 0.04 0.04 0.08 0.14 0.13 0.14 0.06
0.76 0.55 0.40 0.37 0.39 0.47 0.64 0.76 0.62 0.56 0.38 0.27 0.22 0.26 0.28 0.25 0.21 0.28 0.28 0.27 0.19 0.15 0.13 0.12 0.10 0.16 0.09 0.06 0.07 0.07 0.07 0.10 0.10 0.13 0.12 0.09 0.05 0.04 0.05 0.05 0.05 0.08 0.09
0.60 0.38 0.34 0.30 0.33 0.57 0.62 0.73 0.68 0.63 0.65 0.43 0.29 0.23 0.20 0.22 0.30 0.25 0.23 0.31 0.37 0.37 0.31 0.29 0.31 0.42 0.28 0.24 0.22 0.23 0.27 0.29 0.25 0.23 0.19 0.15 0.11 0.07 0.04 0.04 0.05 0.07 0.10
0.58 0.69 0.48 0.43 0.40 0.47 0.68 0.63 0.68 0.64 0.58 0.53 0.41 0.29 0.22 0.17 0.21 0.27 0.27 0.26 0.27 0.32 0.27 0.38 0.45 0.48 0.43 0.37 0.30 0.25 0.27 0.28 0.32 0.38 0.27 0.15 0.09 0.06 0.07 0.11 0.16 0.17 0.16
1.27 1.25 1.04 0.97 1.08 0.91 1.06 0.97 1.03 0.87 0.73 0.65 0.55 0.45 0.31 0.24 0.23 0.20 0.24 0.29 0.30 0.36 0.34 0.35 0.38 0.39 0.37 0.32 0.33 0.35 0.36 0.33 0.31 0.25 0.16 0.09 0.08 0.13 0.20 0.22 0.24 0.24 0.27
0.94 1.03 1.26 1.44 1.60 1.78 1.68 1.62 1.40 1.32 1.21 0.98 0.85 0.72 0.67 0.47 0.28 0.25 0.22 0.26 0.27 0.30 0.37 0.46 0.42 0.36 0.35 0.37 0.37 0.34 0.37 0.46 0.49 0.43 0.35 0.29 0.27 0.28 0.31 0.33 0.37 0.41 0.40
0.77 0.82 1.06 1.15 1.31 1.53 1.46 1.57 1.79 1.83 1.99 1.91 1.99 1.92 1.75 1.46 1.09 0.81 0.56 0.54 0.57 0.59 0.72 0.76 0.49 0.30 0.23 0.22 0.23 0.30 0.42 0.48 0.44 0.42 0.41 0.39 0.37 0.36 0.39 0.44 0.47 0.49 0.44
0.34 0.51 0.76 0.95 1.12 1.38 1.46 1.47 1.56 1.73 1.90 2.13 2.20 2.23 2.08 2.11 1.97 1.57 1.19 0.92 0.74 0.68 0.72 0.76 0.65 0.43 0.36 0.37 0.42 0.46 0.47 0.49 0.56 0.66 0.67 0.65 0.68 0.65 0.75 0.67 0.68 0.69 0.64
0.11 0.22 0.35 0.50 0.60 0.79 1.11 1.23 1.34 1.61 1.66 1.64 1.52 1.51 1.56 1.42 1.36 1.40 1.29 1.05 0.87 0.79 0.71 0.73 0.74 0.67 0.70 0.85 0.95 0.98 0.93 0.87 0.82 0.79 0.77 0.73 0.68 0.65 0.63 0.63 0.68 0.74 0.79
0.00 0.02 0.11 0.23 0.35 0.42 0.61 0.77 0.99 1.18 1.33 1.39 1.38 1.37 1.35 1.40 1.42 1.41 1.33 1.23 1.26 1.27 1.30 1.27 1.26 1.29 1.32 1.37 1.37 1.27 1.13 1.04 1.00 0.95 0.94 0.94 0.94 1.01 1.10 1.07 1.09 1.15 1.13
0.00 0.00 0.00 0.02 0.08 0.22 0.43 0.40 0.52 0.51 0.41 0.43 0.50 0.67 0.82 0.98 1.13 1.24 1.32 1.36 1.38 1.48 1.55 1.50 1.44 1.35 1.26 1.24 1.25 1.30 1.33 1.35 1.34 1.33 1.30 1.28 1.27 1.27 1.23 1.12 1.09 1.07 1.01
0.00 0.00 0.00 0.00 0.00 0.00 0.04 0.08 0.13 0.20 0.27 0.26 0.30 0.35 0.36 0.38 0.54 0.67 0.79 0.89 1.00 1.07 1.11 1.16 1.25 1.27 1.28 1.25 1.21 1.17 1.14 1.11 1.10 1.09 1.07 1.06 1.04 1.00 0.95 0.94 0.93 0.97 1.00
0.00 0.00 0.00 0.00 0.00 0.00 0.00 0.00 0.01 0.01 0.04 0.06 0.08 0.12 0.14 0.12 0.16 0.21 0.29 0.38 0.48 0.56 0.64 0.68 0.73 0.80 0.88 0.94 0.98 1.01 1.02 1.05 1.07 1.10 1.10 1.08 1.06 1.05 1.06 1.05 1.00 0.99 0.95
0.00 0.00 0.00 0.00 0.00 0.00 0.00 0.01 0.01 0.01 0.00 0.01 0.01 0.01 0.02 0.03 0.05 0.10 0.15 0.19 0.22 0.27 0.32 0.36 0.40 0.44 0.50 0.54 0.58 0.61 0.63 0.66 0.71 0.75 0.75 0.75 0.78 0.79 0.78 0.78 0.75 0.75 0.74
0.00 0.00 0.00 0.01 0.01 0.00 0.00 0.01 0.01 0.01 0.01 0.01 0.02 0.02 0.02 0.03 0.04 0.06 0.07 0.08 0.09 0.11 0.14 0.17 0.18 0.20 0.22 0.27 0.31 0.35 0.37 0.37 0.38 0.39 0.40 0.43 0.48 0.60 0.61 0.62 0.63 0.64 0.62
0.00 0.00 0.00 0.00 0.00 0.01 0.00 0.01 0.00 0.01 0.01 0.01 0.03 0.03 0.03 0.03 0.03 0.03 0.03 0.03 0.04 0.06 0.10 0.13 0.15 0.15 0.15 0.14 0.14 0.13 0.15 0.14 0.12 0.16 0.19 0.23 0.26 0.30 0.34 0.36 0.37 0.35 0.32
0.00 0.00 0.00 0.01 0.01 0.01 0.01 0.02 0.02 0.01 0.02 0.03 0.03 0.03 0.03 0.03 0.03 0.03 0.02 0.01 0.02 0.02 0.03 0.03 0.04 0.04 0.03 0.03 0.03 0.03 0.02 0.02 0.02 0.03 0.04 0.05 0.07 0.09 0.13 0.15 0.14 0.12 0.10